[[{"header":{"parameterUnit":"m.s-1","parameterCategory":1,"la1":30.2991,"la2":30.254,"lo1":-89.0895,"lo2":-89.0444,"dy":0.0017,"dx":0.0017,"nx":28,"ny":28,"refTime":"2025-03-24T09:00:00:Z","depth":0,"parameterNumber":2,"parameterNumberName":"U-component_of_WINDS"},"data":[0,0,0,0,0,0,0,0,0,0,0,0,0,0,0,0,0,0,0,0,0,0,0,0,0,0,0,0,0,0,0,0,0,0,0,0,0,0,0,0,0,0,0,0,0,0,0,0,0,0,0,0,0,0,0,0,0,0,-0.8131,-0.8129,0,-0.7948,-0.7946,-0.7944,-0.7885,-0.7886,-0.7886,-0.7887,-0.7691,-0.7685,-0.7679,0,0,0,0,0,0,0,0,0,0,0,0,0,-0.842,-0.8415,-0.8131,-0.8129,-0.8127,-0.7948,-0.7946,-0.7943,-0.7885,-0.7886,-0.7887,-0.7888,-0.7693,-0.7686,-0.7679,0,0,0,0,0,0,0,0,0,0,0,0,0,-0.8271,-0.8413,-0.8132,-0.8076,-0.8069,-0.7949,-0.7945,-0.7942,-0.7884,-0.7886,-0.7887,-0.7888,-0.7696,-0.7687,-0.7678,-0.7597,0,0,-0.765,-0.7646,0,0,0,0,0,0,0,0,-0.828,-0.826,-0.8087,-0.808,-0.8072,-0.7941,-0.7975,-0.7826,-0.7884,-0.7954,-0.7887,-0.7889,-0.7773,-0.7757,-0.772,-0.7587,-0.7579,-0.765,-0.7644,-0.764,-0.7638,0,0,0,0,0,0,0,-0.829,-0.8268,-0.8058,-0.8084,-0.8075,-0.8057,-0.8037,-0.7947,-0.7858,-0.7948,-0.7944,-0.7923,-0.7769,-0.7729,-0.7715,-0.7576,-0.765,-0.7642,-0.7636,-0.7633,-0.7362,-0.736,0,0,0,0,0,0,-0.8311,-0.8277,-0.8064,-0.8053,-0.8181,-0.8051,-0.8029,-0.7981,-0.7859,-0.7842,-0.7922,-0.7921,-0.7744,-0.7725,-0.7708,-0.7602,-0.764,-0.7632,-0.7627,-0.7364,-0.7361,-0.7359,0,0,0,0,0,0,-0.8317,-0.8293,-0.8072,-0.8164,-0.8134,-0.8044,-0.7992,-0.7977,-0.7937,-0.784,-0.7823,-0.7898,-0.7744,-0.772,-0.7624,-0.7594,-0.7628,-0.762,-0.7366,-0.7363,-0.736,-0.7391,0,0,0,0,0,0,-0.8326,-0.8295,-0.8267,-0.8164,-0.813,-0.7995,-0.799,-0.7973,-0.7923,-0.7919,-0.7813,-0.7796,-0.7743,-0.7638,-0.7615,-0.7582,-0.7613,-0.7368,-0.7364,-0.7361,-0.7392,-0.739,-0.7387,0,0,0,0,0,-0.8337,-0.8282,-0.8266,-0.824,-0.8092,-0.7993,-0.7973,-0.7916,-0.7921,-0.7889,-0.7825,-0.7799,-0.7601,-0.7629,-0.7602,-0.7566,-0.737,-0.7365,-0.7362,-0.7393,-0.739,-0.7388,0,0,0,0,0,0,-0.8383,-0.8268,-0.8248,-0.8159,-0.8087,-0.7984,-0.7943,-0.7915,-0.7838,-0.7838,-0.7767,-0.7743,-0.7651,-0.7599,-0.7631,-0.7478,-0.7484,-0.7474,-0.7517,-0.7513,-0.7511,-0.7525,-0.7605,0,0,0,0,0,-0.8383,-0.8315,-0.8217,-0.8148,-0.8112,-0.8034,-0.7988,-0.795,-0.7871,-0.7839,-0.7769,-0.769,-0.7609,-0.7558,-0.7479,-0.7384,-0.7357,-0.7345,-0.7343,-0.7342,-0.7334,-0.7275,-0.7268,-0.7346,-0.7346,-0.7346,0,0,-0.8382,-0.831,-0.8272,-0.8155,-0.8094,-0.8022,-0.8008,-0.7934,-0.7878,-0.7827,-0.7732,-0.7677,-0.7584,-0.7487,-0.7441,-0.7441,-0.7306,-0.7336,-0.7336,-0.7329,-0.7271,-0.7263,-0.7257,-0.7344,-0.7344,-0.7344,0,0,-0.8343,-0.8284,-0.8218,-0.8157,-0.8065,-0.8012,-0.7996,-0.7896,-0.7858,-0.7762,-0.7721,-0.7651,-0.7516,-0.745,-0.7399,-0.733,-0.7301,-0.7305,-0.7293,-0.7237,-0.723,-0.7225,-0.7197,-0.7189,-0.7298,-0.7298,-0.7298,0,-0.8353,-0.8246,-0.8187,-0.8113,-0.8061,-0.8012,-0.7942,-0.7885,-0.7771,-0.7734,-0.7736,-0.7561,-0.7496,-0.7381,-0.7364,-0.7324,-0.7301,-0.7318,-0.7237,-0.723,-0.7224,-0.7197,-0.7187,-0.7299,-0.7299,-0.7299,-0.7299,0,-0.8261,-0.8187,-0.8144,-0.8037,-0.7979,-0.7908,-0.7834,-0.7782,-0.7747,-0.7692,-0.7592,-0.7511,-0.7412,-0.7382,-0.7347,-0.726,-0.7262,-0.7251,-0.7255,-0.7218,-0.7192,-0.7181,-0.7301,-0.73,-0.73,-0.73,0,0,-0.825,-0.8108,-0.8093,-0.8042,-0.7935,-0.7874,-0.7798,-0.7703,-0.7659,-0.758,-0.7512,-0.7395,-0.7383,-0.7325,-0.7281,-0.7232,-0.7178,-0.7226,-0.7222,-0.7218,-0.7073,-0.7082,-0.7072,-0.7159,-0.7156,-0.7155,-0.7081,0,-0.8197,-0.8063,-0.8004,-0.7895,-0.7822,-0.7772,-0.7705,-0.7629,-0.7575,-0.7503,-0.7441,-0.7359,-0.7351,-0.7315,-0.7264,-0.7196,-0.7148,-0.72,-0.7091,-0.7088,-0.7116,-0.7058,-0.7068,-0.7003,-0.707,-0.7068,-0.7067,0,-0.8118,-0.804,-0.7924,-0.7821,-0.7788,-0.773,-0.7636,-0.7569,-0.7479,-0.7443,-0.7376,-0.7334,-0.7247,-0.7256,-0.7133,-0.717,-0.712,-0.708,-0.7076,-0.7063,-0.7076,-0.7043,-0.6981,-0.6971,-0.705,-0.7052,-0.7053,0,-0.812,-0.7985,-0.7897,-0.7854,-0.7733,-0.7692,-0.7639,-0.7551,-0.7497,-0.7413,-0.7376,-0.7283,-0.7231,-0.7158,-0.709,-0.7103,-0.6972,-0.6976,-0.6936,-0.6938,-0.6911,-0.6914,-0.684,-0.6881,-0.6881,-0.6881,-0.6882,0,-0.8066,-0.7996,-0.7895,-0.7841,-0.7759,-0.769,-0.761,-0.7553,-0.7474,-0.7405,-0.7354,-0.729,-0.7204,-0.7127,-0.7072,-0.6976,-0.6954,-0.6919,-0.6905,-0.6923,-0.6928,-0.6891,-0.6893,-0.6879,-0.6879,-0.688,-0.688,0,-0.8055,-0.7985,-0.7885,-0.7777,-0.7748,-0.7692,-0.7598,-0.7541,-0.7483,-0.7395,-0.737,-0.7278,-0.7184,-0.7108,-0.6985,-0.6948,-0.6847,-0.6832,-0.6878,-0.6871,-0.6835,-0.6839,-0.6734,-0.6715,-0.677,-0.677,-0.677,0,-0.8026,-0.7971,-0.7856,-0.7807,-0.7755,-0.7676,-0.762,-0.7547,-0.749,-0.7381,-0.7336,-0.7239,-0.7158,-0.7009,-0.6929,-0.6833,-0.6814,-0.6784,-0.68,-0.6818,-0.6811,-0.6816,-0.6808,-0.6782,-0.6782,-0.6782,-0.6782,0,-0.798,-0.7947,-0.787,-0.7777,-0.7712,-0.7636,-0.7558,-0.7519,-0.7432,-0.7369,-0.7273,-0.721,-0.7083,-0.6986,-0.6881,-0.6822,-0.6786,-0.6777,-0.6762,-0.6781,-0.6809,-0.6791,-0.6873,-0.678,-0.678,-0.678,-0.6781,-0.6781,-0.7958,-0.7905,-0.7815,-0.7729,-0.7662,-0.759,-0.753,-0.7463,-0.7383,-0.7276,-0.7237,-0.7137,-0.7044,-0.6899,-0.6839,-0.6757,-0.6754,-0.6734,-0.6728,-0.6724,-0.6725,-0.6822,-0.6738,-0.6738,-0.6738,-0.6738,-0.6738,0,-0.7908,-0.7847,-0.7768,-0.7661,-0.7591,-0.7564,-0.7475,-0.7418,-0.7332,-0.7249,-0.7169,-0.7056,-0.696,-0.6871,-0.677,-0.6721,-0.6702,-0.6697,-0.67,-0.6686,-0.6735,-0.6757,-0.6714,-0.6714,-0.6714,-0.6714,-0.6714,-0.6714,-0.7875,-0.7783,-0.7738,-0.7611,-0.7549,-0.7453,-0.7404,-0.7335,-0.7268,-0.7145,-0.7065,-0.7008,-0.6921,-0.6812,-0.6721,-0.6697,-0.6661,-0.666,-0.6631,-0.6679,-0.6683,-0.6686,-0.6706,-0.6653,-0.6653,-0.6588,-0.6588,-0.6587]},{"header":{"parameterUnit":"m.s-1","parameterCategory":1,"la1":30.2991,"la2":30.254,"lo1":-89.0895,"lo2":-89.0444,"dy":0.0017,"dx":0.0017,"nx":28,"ny":28,"refTime":"2025-03-24T09:00:00:Z","depth":0,"parameterNumber":3,"parameterNumberName":"V-component_of_WINDS"},"data":[0,0,0,0,0,0,0,0,0,0,0,0,0,0,0,0,0,0,0,0,0,0,0,0,0,0,0,0,0,0,0,0,0,0,0,0,0,0,0,0,0,0,0,0,0,0,0,0,0,0,0,0,0,0,0,0,0,0,3.4448,3.4445,0,3.4197,3.4194,3.4191,3.4185,3.4188,3.4192,3.4195,3.3915,3.3905,3.3894,0,0,0,0,0,0,0,0,0,0,0,0,0,3.4898,3.489,3.4448,3.4445,3.4442,3.4197,3.4194,3.419,3.4185,3.4189,3.4192,3.4196,3.3918,3.3906,3.3893,0,0,0,0,0,0,0,0,0,0,0,0,0,3.468,3.4887,3.4448,3.441,3.4404,3.4198,3.4194,3.419,3.4184,3.4189,3.4193,3.4198,3.3922,3.3907,3.3892,3.37,0,0,3.3844,3.3837,0,0,0,0,0,0,0,0,3.4692,3.4663,3.4419,3.4412,3.4405,3.4228,3.425,3.4025,3.4183,3.4267,3.4195,3.42,3.4014,3.3991,3.3933,3.3687,3.3675,3.3843,3.3833,3.3827,3.3822,0,0,0,0,0,0,0,3.4707,3.4674,3.4348,3.4415,3.4407,3.4397,3.4372,3.4207,3.4116,3.426,3.4259,3.423,3.4011,3.3948,3.3926,3.3671,3.3843,3.3829,3.382,3.3814,3.3246,3.3241,0,0,0,0,0,0,3.4733,3.4686,3.4356,3.434,3.4564,3.4385,3.4357,3.4279,3.4118,3.4098,3.4227,3.4231,3.3972,3.3944,3.3916,3.3674,3.3827,3.3812,3.3803,3.3252,3.3245,3.3239,0,0,0,0,0,0,3.4743,3.4704,3.4366,3.4513,3.447,3.4373,3.4286,3.4272,3.4209,3.4093,3.4074,3.4181,3.3975,3.3938,3.3754,3.3664,3.3805,3.3791,3.3259,3.325,3.3242,3.3193,0,0,0,0,0,0,3.4756,3.4708,3.464,3.4512,3.4462,3.4215,3.4281,3.4264,3.4185,3.4188,3.4045,3.4025,3.3975,3.3777,3.3738,3.3645,3.3779,3.3266,3.3255,3.3245,3.3202,3.3184,3.3168,0,0,0,0,0,3.4772,3.4633,3.4636,3.4596,3.4376,3.421,3.418,3.4133,3.4179,3.4104,3.4029,3.403,3.3683,3.3758,3.3714,3.3616,3.3271,3.3258,3.3246,3.3209,3.3187,3.3169,0,0,0,0,0,0,3.4745,3.4615,3.4618,3.4435,3.4334,3.421,3.4115,3.4112,3.399,3.3998,3.3937,3.3904,3.3718,3.365,3.3736,3.3417,3.3481,3.3459,3.3468,3.3447,3.343,3.3446,3.3766,0,0,0,0,0,3.472,3.4603,3.4493,3.4341,3.4292,3.4213,3.4138,3.4111,3.4001,3.3956,3.3867,3.3754,3.3618,3.353,3.34,3.3195,3.3157,3.3104,3.3088,3.3075,3.3053,3.293,3.2902,3.3197,3.3197,3.3197,0,0,3.4661,3.4576,3.4505,3.4334,3.4253,3.4124,3.4176,3.404,3.3941,3.3933,3.3753,3.3684,3.3553,3.3356,3.3264,3.3292,3.2964,3.3058,3.3049,3.3033,3.2914,3.2886,3.2861,3.3188,3.319,3.3191,0,0,3.4489,3.4418,3.428,3.4199,3.4078,3.4026,3.3993,3.3869,3.3824,3.3645,3.3634,3.3512,3.3283,3.3188,3.3109,3.29,3.2891,3.2859,3.2767,3.2648,3.2624,3.2603,3.2518,3.249,3.284,3.284,3.2839,0,3.443,3.4245,3.4208,3.4071,3.3991,3.3986,3.384,3.3761,3.36,3.3541,3.3578,3.3286,3.3198,3.2974,3.2923,3.2864,3.2815,3.2871,3.2633,3.2611,3.259,3.2508,3.2478,3.2836,3.2836,3.2837,3.2837,0,3.4173,3.4044,3.3946,3.3797,3.3707,3.3567,3.35,3.3412,3.3393,3.3334,3.3146,3.3042,3.2886,3.2833,3.281,3.2602,3.2623,3.2647,3.2708,3.2559,3.248,3.245,3.283,3.2831,3.2833,3.2834,0,0,3.3971,3.3806,3.3769,3.3699,3.3565,3.3459,3.3315,3.3171,3.3092,3.2981,3.2851,3.2657,3.2678,3.2589,3.2555,3.2452,3.2281,3.2487,3.2483,3.2444,3.2033,3.2009,3.1974,3.2279,3.2273,3.2269,3.2041,0,3.3777,3.3529,3.349,3.3266,3.3141,3.3134,3.3006,3.2905,3.2846,3.2724,3.2657,3.2517,3.2561,3.2505,3.2404,3.2324,3.2195,3.2341,3.2145,3.2139,3.217,3.1935,3.191,3.17,3.2011,3.2006,3.2003,0,3.3517,3.3405,3.317,3.3049,3.2994,3.2882,3.2742,3.2631,3.2512,3.2476,3.2377,3.2355,3.2195,3.2271,3.2043,3.2142,3.206,3.2009,3.1999,3.197,3.2055,3.189,3.1633,3.1598,3.1956,3.196,3.1963,0,3.3381,3.3172,3.3003,3.2944,3.2801,3.2719,3.2654,3.2543,3.2456,3.2332,3.2273,3.2131,3.205,3.1936,3.1872,3.1935,3.1645,3.1718,3.1601,3.1601,3.1532,3.1535,3.1248,3.1497,3.1497,3.1498,3.1498,0,3.3163,3.3017,3.294,3.2834,3.2668,3.2623,3.2456,3.2392,3.2292,3.2166,3.2152,3.2033,3.1962,3.183,3.1779,3.1592,3.1558,3.1516,3.1502,3.1512,3.1516,3.145,3.1459,3.1489,3.1491,3.1493,3.1494,0,3.298,3.2924,3.2737,3.2619,3.2585,3.2466,3.2359,3.2251,3.2196,3.2037,3.1997,3.1904,3.1748,3.1677,3.1482,3.1447,3.1231,3.1233,3.1272,3.1265,3.1148,3.1156,3.08,3.0746,3.1041,3.1038,3.1036,0,3.284,3.2728,3.2598,3.2517,3.2451,3.2321,3.2234,3.2184,3.2092,3.1947,3.1854,3.17,3.1573,3.1321,3.123,3.108,3.107,3.0956,3.1046,3.1057,3.1055,3.1059,3.1042,3.0936,3.0933,3.0931,3.0929,0,3.2594,3.2571,3.2451,3.2318,3.2216,3.2107,3.2,3.1932,3.1864,3.176,3.1604,3.1506,3.1309,3.115,3.0994,3.0917,3.0905,3.0904,3.0866,3.0869,3.0893,3.0868,3.1216,3.0909,3.0911,3.0913,3.0914,3.0914,3.242,3.2318,3.221,3.2073,3.1989,3.1889,3.1781,3.1713,3.1584,3.1424,3.1402,3.1231,3.1109,3.0899,3.0816,3.0676,3.0702,3.0651,3.0636,3.0621,3.0609,3.0925,3.0648,3.0649,3.0649,3.065,3.065,0,3.2164,3.2095,3.1971,3.1824,3.1714,3.1727,3.1608,3.1512,3.1365,3.1257,3.1133,3.0948,3.0795,3.0694,3.0536,3.0442,3.0433,3.0401,3.0402,3.0382,3.06,3.0644,3.0411,3.0411,3.0411,3.0411,3.0411,3.0412,3.2017,3.1842,3.1806,3.1586,3.1516,3.1355,3.1284,3.1188,3.1101,3.0898,3.0773,3.0712,3.0602,3.0436,3.0292,3.0265,3.0202,3.0168,3.014,3.0344,3.0368,3.0391,3.0431,3.0158,3.0158,2.9932,2.993,2.9929]}]]